Terminal Aerodrome Forecast
Issued by NWS Upton, NY

Home | Current Version | Previous Version | Text Only | Print | Product List | Glossary On
Versions: 1 2 3 4 5 6 7 8 9 10 11 12 13 14 15 16 17 18 19 20 21 22 23 24 25 26 27 28 29 30
000
FTUS41 KOKX 222112 AAC
TAFJFK
TAF AMD
KJFK 222112Z 2221/2324 32018G28KT P6SM VCSH BKN090
     FM230200 32017G25KT P6SM SCT090
     FM230700 32015KT P6SM SKC
     FM231000 32010KT P6SM SKC
     FM231600 22015KT P6SM FEW250=

USA.gov is the U.S. government's official web portal to all federal, state and local government web resources and services.